TimeCST,TemperatureF,Dew PointF,Humidity,Sea Level PressureIn,VisibilityMPH,Wind Direction,Wind SpeedMPH,Gust SpeedMPH,PrecipitationIn,Events,Conditions,WindDirDegrees,DateUTC
12:15 AM,55.6,48.4,77,30.01,10.0,SSE,10.4,17.3,N/A,,Overcast,150,2014-01-31 06:15:00
12:35 AM,55.4,48.4,77,30.00,10.0,SSE,9.2,17.3,N/A,,Overcast,150,2014-01-31 06:35:00
12:55 AM,55.4,48.7,78,30.01,10.0,SSE,8.1,-,N/A,,Overcast,150,2014-01-31 06:55:00
1:15 AM,55.0,49.1,80,30.01,10.0,SE,9.2,-,N/A,,Overcast,140,2014-01-31 07:15:00
1:35 AM,55.0,49.3,81,30.01,10.0,SSE,9.2,-,N/A,,Overcast,150,2014-01-31 07:35:00
1:55 AM,55.4,49.5,80,30.01,10.0,SSE,8.1,-,N/A,,Overcast,150,2014-01-31 07:55:00
2:15 AM,55.4,49.5,80,30.01,10.0,SSE,9.2,-,N/A,,Overcast,150,2014-01-31 08:15:00
2:35 AM,55.4,49.3,80,30.00,10.0,SE,8.1,-,N/A,,Overcast,140,2014-01-31 08:35:00
2:55 AM,55.4,49.3,80,30.00,10.0,SSE,9.2,-,N/A,,Overcast,150,2014-01-31 08:55:00
3:15 AM,55.4,49.1,79,30.00,10.0,SE,8.1,-,N/A,,Overcast,140,2014-01-31 09:15:00
3:35 AM,55.4,49.1,79,30.00,10.0,SSE,8.1,-,N/A,,Overcast,150,2014-01-31 09:35:00
3:55 AM,55.4,49.1,79,29.99,10.0,SSE,9.2,-,N/A,,Overcast,150,2014-01-31 09:55:00
4:15 AM,55.0,49.1,80,29.98,10.0,SSE,9.2,-,N/A,,Overcast,150,2014-01-31 10:15:00
4:35 AM,54.5,49.1,82,29.98,10.0,SE,6.9,-,N/A,,Overcast,140,2014-01-31 10:35:00
4:55 AM,54.0,49.1,84,29.97,10.0,North,-9999.0,-,N/A,,Mostly Cloudy,0,2014-01-31 10:55:00
5:15 AM,53.6,49.8,87,29.98,10.0,SSE,9.2,-,N/A,,Mostly Cloudy,150,2014-01-31 11:15:00
5:35 AM,53.6,51.6,93,29.98,10.0,North,-9999.0,-,N/A,,Mostly Cloudy,0,2014-01-31 11:35:00
5:55 AM,53.4,53.4,100,29.99,10.0,North,-9999.0,-,N/A,,Mostly Cloudy,0,2014-01-31 11:55:00
6:15 AM,-9999,-9999,N/A,29.99,10.0,North,-9999.0,-,N/A,,Mostly Cloudy,0,2014-01-31 12:15:00
6:35 AM,-9999,-9999,N/A,30.00,10.0,North,-9999.0,-,N/A,,Scattered Clouds,0,2014-01-31 12:35:00
6:55 AM,-9999,-9999,N/A,30.00,10.0,SE,9.2,-,N/A,,Mostly Cloudy,140,2014-01-31 12:55:00
7:15 AM,-9999,-9999,N/A,30.00,10.0,North,-9999.0,-,N/A,,Mostly Cloudy,0,2014-01-31 13:15:00
7:35 AM,-9999,-9999,N/A,30.00,10.0,SSE,8.1,-,N/A,,Mostly Cloudy,150,2014-01-31 13:35:00
7:55 AM,55.9,55.9,100,30.01,10.0,SSE,8.1,-,N/A,,Overcast,150,2014-01-31 13:55:00
8:15 AM,56.8,56.5,99,30.01,10.0,SE,9.2,-,N/A,,Overcast,140,2014-01-31 14:15:00
8:35 AM,58.1,54.5,88,30.01,10.0,SSE,9.2,-,N/A,,Overcast,150,2014-01-31 14:35:00
8:55 AM,59.9,54.0,81,30.02,10.0,SSE,8.1,-,N/A,,Overcast,160,2014-01-31 14:55:00
9:15 AM,61.9,53.6,74,30.02,10.0,SSE,11.5,-,N/A,,Overcast,160,2014-01-31 15:15:00
9:35 AM,62.8,53.6,72,30.04,10.0,SSE,11.5,18.4,N/A,,Overcast,160,2014-01-31 15:35:00
9:55 AM,64.0,53.6,69,30.04,10.0,South,10.4,-,N/A,,Overcast,170,2014-01-31 15:55:00
10:15 AM,64.9,53.6,67,30.05,10.0,SSE,15.0,20.7,N/A,,Overcast,160,2014-01-31 16:15:00
10:35 AM,65.7,52.7,63,30.04,10.0,South,13.8,21.9,N/A,,Overcast,170,2014-01-31 16:35:00
10:55 AM,66.9,53.1,61,30.04,10.0,South,15.0,23.0,N/A,,Overcast,170,2014-01-31 16:55:00
11:15 AM,67.3,53.1,60,30.04,10.0,SSE,17.3,24.2,N/A,,Overcast,160,2014-01-31 17:15:00
11:35 AM,67.5,52.9,59,30.03,10.0,SSE,18.4,24.2,N/A,,Overcast,160,2014-01-31 17:35:00
11:55 AM,68.0,53.1,59,30.03,10.0,SSE,17.3,23.0,N/A,,Overcast,160,2014-01-31 17:55:00
12:15 PM,68.4,53.2,58,30.02,10.0,South,16.1,21.9,N/A,,Overcast,170,2014-01-31 18:15:00
12:35 PM,68.5,53.2,58,30.00,10.0,South,13.8,21.9,N/A,,Overcast,180,2014-01-31 18:35:00
12:55 PM,69.8,52.9,55,30.00,10.0,South,12.7,23.0,N/A,,Overcast,180,2014-01-31 18:55:00
1:15 PM,68.2,52.7,58,29.99,10.0,South,15.0,24.2,N/A,,Overcast,170,2014-01-31 19:15:00
1:35 PM,68.2,53.2,59,29.98,10.0,SSE,18.4,25.3,N/A,,Overcast,160,2014-01-31 19:35:00
1:55 PM,68.0,52.7,58,29.97,10.0,SSE,15.0,26.5,N/A,,Overcast,160,2014-01-31 19:55:00
2:15 PM,68.7,52.7,57,29.97,10.0,SSE,12.7,21.9,N/A,,Overcast,150,2014-01-31 20:15:00
2:35 PM,68.2,53.1,58,29.97,10.0,South,13.8,23.0,N/A,,Overcast,170,2014-01-31 20:35:00
2:55 PM,68.0,53.2,59,29.97,10.0,South,13.8,23.0,N/A,,Overcast,170,2014-01-31 20:55:00
3:15 PM,67.5,53.1,60,29.97,10.0,SSE,9.2,20.7,N/A,,Overcast,160,2014-01-31 21:15:00
3:35 PM,66.9,52.9,61,29.97,10.0,SSE,15.0,21.9,N/A,,Overcast,160,2014-01-31 21:35:00
3:55 PM,66.2,52.9,62,29.97,10.0,South,12.7,18.4,N/A,,Overcast,170,2014-01-31 21:55:00
4:15 PM,65.8,53.8,65,29.97,10.0,SSE,13.8,21.9,N/A,,Overcast,160,2014-01-31 22:15:00
4:35 PM,65.5,53.6,65,29.97,10.0,SSE,15.0,21.9,N/A,,Overcast,160,2014-01-31 22:35:00
4:55 PM,64.9,53.6,67,29.97,10.0,SSE,12.7,20.7,N/A,,Overcast,160,2014-01-31 22:55:00
5:15 PM,64.4,53.6,68,29.97,10.0,SSE,10.4,17.3,N/A,,Overcast,150,2014-01-31 23:15:00
5:35 PM,63.1,53.2,70,29.97,10.0,SSE,10.4,16.1,N/A,,Overcast,150,2014-01-31 23:35:00
5:55 PM,62.4,53.1,71,29.97,10.0,SSE,9.2,-,N/A,,Overcast,150,2014-01-31 23:55:00
6:15 PM,61.3,52.9,74,29.97,10.0,SSE,9.2,-,N/A,,Overcast,150,2014-02-01 00:15:00
6:35 PM,60.1,52.9,77,29.97,10.0,SE,6.9,-,N/A,,Overcast,140,2014-02-01 00:35:00
6:55 PM,59.9,53.2,79,29.97,10.0,SSE,6.9,-,N/A,,Overcast,150,2014-02-01 00:55:00
7:15 PM,58.8,53.1,81,29.97,10.0,SSE,9.2,-,N/A,,Mostly Cloudy,150,2014-02-01 01:15:00
7:35 PM,58.1,53.2,84,29.97,10.0,SSE,9.2,-,N/A,,Mostly Cloudy,150,2014-02-01 01:35:00
7:55 PM,57.9,53.4,85,29.98,10.0,SSE,8.1,-,N/A,,Mostly Cloudy,150,2014-02-01 01:55:00
8:15 PM,57.6,53.6,87,29.97,10.0,SE,8.1,-,N/A,,Mostly Cloudy,140,2014-02-01 02:15:00
8:35 PM,57.2,54.9,92,29.97,10.0,SE,6.9,-,N/A,,Scattered Clouds,140,2014-02-01 02:35:00
8:55 PM,-9999,-9999,N/A,29.97,10.0,SE,6.9,-,N/A,,Scattered Clouds,140,2014-02-01 02:55:00
9:15 PM,-9999,-9999,N/A,29.97,10.0,SE,6.9,-,N/A,,Scattered Clouds,140,2014-02-01 03:15:00
9:35 PM,-9999,-9999,N/A,29.98,10.0,SSE,8.1,-,N/A,,Mostly Cloudy,150,2014-02-01 03:35:00
9:55 PM,-9999,-9999,N/A,29.97,10.0,SE,10.4,-,N/A,,Mostly Cloudy,140,2014-02-01 03:55:00
10:15 PM,-9999,-9999,N/A,29.97,10.0,SSE,9.2,16.1,N/A,,Scattered Clouds,150,2014-02-01 04:15:00
10:35 PM,-9999,-9999,N/A,29.96,10.0,SE,8.1,-,N/A,,Clear,140,2014-02-01 04:35:00
10:55 PM,-9999,-9999,N/A,29.95,10.0,SE,9.2,-,N/A,,Clear,140,2014-02-01 04:55:00
11:15 PM,-9999,-9999,N/A,29.95,10.0,SE,8.1,-,N/A,,Clear,140,2014-02-01 05:15:00
11:35 PM,-9999,-9999,N/A,29.94,10.0,SSE,8.1,-,N/A,,Clear,150,2014-02-01 05:35:00
11:55 PM,-9999,-9999,N/A,29.94,10.0,SSE,9.2,-,N/A,,Clear,150,2014-02-01 05:55:00